Weather History for Papa, Hungary

Change the Weather History Date:

Tuesday, October 23, 2012

  Actual Average Record
Temperature  
Mean Temperature 44 °F -  
Max Temperature 50 °F - - ()
Min Temperature 39 °F - - ()
Degree Days  
Heating Degree Days 20    
Moisture  
Dew Point 47 °F    
Average Humidity 100    
Maximum Humidity 100    
Minimum Humidity 100    
Precipitation  
Precipitation 0.00 in - - ()
Sea Level Pressure  
Sea Level Pressure 30.22 in    
Wind  
Wind Speed 2 mph ()    
Max Wind Speed 7 mph    
Max Gust Speed -    
Visibility 0.3 miles    
Events Fog    
T = Trace of Precipitation, MM = Missing Value Source: Averaged Metar Reports

Daily Weather History Graph

Daily Weather History Graph

Search for Another Location

Airport:

Trip Planner

Search our weather history database for the weather conditions in past years. The results will help you decide how hot, cold, wet, or windy it might be!

Date:

Astronomy

Oct. 23, 2012 Rise Set
Actual Time 7:20 AM CEST 5:47 PM CEST
Civil Twilight 6:49 AM CEST 6:18 PM CEST
Nautical Twilight 6:13 AM CEST 6:54 PM CEST
Astronomical Twilight 5:37 AM CEST 7:29 PM CEST
Moon 2:43 PM CEST (10/23) 12:28 AM CEST (10/23)
Length of Visible Light 11h 29m
Length of Day
10h 27m
Waxing Gibbous, 64% of the Moon is Illuminated
Oct 23
Waxing Gibbous
Oct 29
Full
Nov 7
Last Quarter
Nov 13
New
Nov 20
First Quarter

Hourly Weather History & Observations

Time (CEST) Temp. Dew Point Humidity Pressure Visibility Wind Dir Wind Speed Gust Speed Precip Events Conditions
12:15 AM 39.2 °F 39.2 °F 100% 30.21 in 0.1 mi Calm Calm - N/A Fog Fog
12:45 AM 39.2 °F 39.2 °F 100% 30.21 in 0.1 mi Calm Calm - N/A Fog Fog
1:15 AM 39.2 °F 39.2 °F 100% 30.21 in 0.1 mi Calm Calm - N/A Fog Fog
1:45 AM 41.0 °F 41.0 °F 100% 30.21 in 0.1 mi Calm Calm - N/A Fog Fog
2:15 AM 42.8 °F 42.8 °F 100% 30.21 in 0.1 mi Calm Calm - N/A Fog Fog
2:45 AM 42.8 °F 42.8 °F 100% 30.21 in 0.1 mi Calm Calm - N/A Fog Fog
3:15 AM 42.8 °F 42.8 °F 100% 30.21 in 0.1 mi Calm Calm - N/A Fog Fog
3:45 AM 42.8 °F 42.8 °F 100% 30.21 in 0.1 mi Calm Calm - N/A Fog Fog
4:15 AM 42.8 °F 42.8 °F 100% 30.21 in 0.1 mi Calm Calm - N/A Fog Fog
4:45 AM 42.8 °F 42.8 °F 100% 30.21 in 0.1 mi Calm Calm - N/A Fog Fog
5:15 AM 44.6 °F 44.6 °F 100% 30.21 in 0.1 mi Calm Calm - N/A Fog Fog
5:45 AM 44.6 °F 44.6 °F 100% 30.21 in 0.1 mi Calm Calm - N/A Fog Fog
6:15 AM 44.6 °F 44.6 °F 100% 30.21 in 0.1 mi Calm Calm - N/A Fog Fog
6:45 AM - - N/A% - 0.1 mi Variable 2.2 mph - N/A Fog Fog
7:15 AM 44.6 °F 44.6 °F 100% 30.21 in 0.0 mi Calm Calm - N/A Fog Fog
7:45 AM 44.6 °F 44.6 °F 100% 30.24 in 0.0 mi Calm Calm - N/A Fog Fog
8:15 AM 44.6 °F 44.6 °F 100% 30.24 in 0.0 mi NNW 2.2 mph - N/A Fog Fog
8:45 AM 44.6 °F 44.6 °F 100% 30.24 in 0.0 mi North 2.2 mph - N/A Fog Fog
9:15 AM 46.4 °F 46.4 °F 100% 30.24 in 0.1 mi Calm Calm - N/A Fog Fog
9:45 AM - - N/A% - 1.9 mi Variable 2.2 mph - N/A   Mostly Cloudy
10:00 AM - - N/A% - 0.4 mi Variable 2.2 mph - N/A Fog Fog
10:15 AM 46.4 °F 46.4 °F 100% 30.24 in 0.1 mi WNW 2.2 mph - N/A Fog Fog
10:37 AM 48.2 °F 48.2 °F 100% 30.27 in 0.1 mi WNW 4.5 mph - N/A Fog Light Drizzle
10:45 AM 48.2 °F 48.2 °F 100% 30.27 in 0.1 mi WNW 2.2 mph - N/A Fog Light Drizzle
11:15 AM 48.2 °F 48.2 °F 100% 30.27 in 0.1 mi West 2.2 mph - N/A Fog Light Drizzle
11:45 AM 46.4 °F 46.4 °F 100% 30.27 in 0.1 mi NW 2.2 mph - N/A Fog Light Drizzle
12:15 PM 48.2 °F 48.2 °F 100% 30.27 in 0.1 mi North 2.2 mph - N/A Fog Light Drizzle
12:45 PM - - N/A% - 0.1 mi Variable 2.2 mph - N/A Fog Light Fog
12:58 PM 48.2 °F 48.2 °F 100% 30.24 in 0.1 mi North 2.2 mph - N/A Fog Light Drizzle
1:00 PM - - N/A% - 0.9 mi Variable 2.2 mph - N/A   Mostly Cloudy
1:15 PM 50.0 °F 50.0 °F 100% 30.24 in 0.2 mi WNW 4.5 mph - N/A Fog Fog
1:45 PM 50.0 °F 50.0 °F 100% 30.24 in 0.2 mi NW 2.2 mph - N/A Fog Fog
2:15 PM 50.0 °F 50.0 °F 100% 30.24 in 0.3 mi North 4.5 mph - N/A Fog Fog
2:45 PM 50.0 °F 50.0 °F 100% 30.21 in 0.3 mi North 2.2 mph - N/A Fog Fog
3:15 PM 50.0 °F 50.0 °F 100% 30.24 in 0.3 mi NNW 6.7 mph - N/A Fog Fog
3:45 PM - - N/A% - 1.9 mi Variable 4.5 mph - N/A   Mostly Cloudy
4:15 PM 50.0 °F 50.0 °F 100% 30.21 in 0.3 mi North 4.5 mph - N/A Fog Fog
4:45 PM 50.0 °F 50.0 °F 100% 30.21 in 0.3 mi North 4.5 mph - N/A Fog Fog
5:45 PM 50.0 °F 50.0 °F 100% 30.21 in 0.2 mi North 2.2 mph - N/A Fog Fog
6:02 PM 50.0 °F 50.0 °F 100% 30.21 in 0.1 mi North 2.2 mph - N/A Fog Fog
6:15 PM 50.0 °F 50.0 °F 100% 30.21 in 0.1 mi North 2.2 mph - N/A Fog Fog
6:45 PM - - N/A% - 0.2 mi Variable 4.5 mph - N/A Fog Fog
7:15 PM 50.0 °F 50.0 °F 100% 30.21 in 0.1 mi NNW 4.5 mph - N/A Fog Fog
7:45 PM 50.0 °F 50.0 °F 100% 30.21 in 0.1 mi North 4.5 mph - N/A Fog Fog
8:15 PM 48.2 °F 48.2 °F 100% 30.21 in 0.1 mi NNW 6.7 mph - N/A Fog Fog
8:45 PM 48.2 °F 48.2 °F 100% 30.21 in 0.1 mi NNW 4.5 mph - N/A Fog Fog
9:15 PM 48.2 °F 48.2 °F 100% 30.21 in 0.1 mi NNW 4.5 mph - N/A Fog Fog
9:45 PM - - N/A% - 1.9 mi NNW 6.7 mph - N/A   Mostly Cloudy
9:51 PM 48.2 °F 48.2 °F 100% 30.21 in 0.4 mi NNW 4.5 mph - N/A Fog Fog
10:15 PM 48.2 °F 48.2 °F 100% 30.21 in 0.4 mi NNW 4.5 mph - N/A Fog Fog
10:45 PM 48.2 °F 48.2 °F 100% 30.21 in 0.4 mi NW 4.5 mph - N/A Fog Fog
11:15 PM 48.2 °F 48.2 °F 100% 30.21 in 0.4 mi NNW 6.7 mph - N/A Fog Fog
11:26 PM 48.2 °F 48.2 °F 100% 30.21 in 0.7 mi NNW 4.5 mph - N/A   Overcast
11:45 PM 48.2 °F 48.2 °F 100% 30.21 in 0.8 mi NNW 4.5 mph - N/A   Overcast